Find Brasilsat B2

NORAD ID: 23536 Int'l Des: 1995-016 Owner: EMBR Country: BR operational
HEOCIRCULAR

リアルタイム位置

3D地球を読み込み中...

Brasilsat B2について

説明を読み込み中...

次回通過

Passes for default location (London). Set your location on the main map for personalized predictions.

高度履歴

Loading altitude history...

軌道要素

1 23536U 95016A 26133.89591572 -.00000015 00000-0 00000-0 0 9998
2 23536 12.0628 31.8727 0001865 251.6335 295.2097 0.99239007113753
Epoch: May 13, 2026 • Age: 19 hours

現在のステータス

高度 36083.7 km
速度 3.06 km/s
衛星直下点 11.39°N, 21.99°E
打ち上げ日 Mar 28, 1995
運用期間 31.1 years
タイプ other

技術仕様

分類 Payload
質量 1760.00 kg
乾燥質量 800.00 kg
総質量 1760.00 kg
長さ 8.40 m
直径 3.60 m
スパン 8.40 m
形状 Cyl
製造者 HSES
バスタイプ HS-376W
フェーズステータス Unknown Active Status
所有者/国 EMBR/BR

Most Searched